GFSCGP_sfc_30mbdewp_027.txt.gz
Dewpoint
43 38 33 34 33 32 32 31 31 32 32 30 30 30 29 29 29 28 28 28 28 29 30 31 33 34 34 35 36 38 40 48 63 64 64 64 63 63 64 64 63 61 60 60
40 36 37 36 35 32 31 30 30 32 29 28 27 26 27 28 28 28 28 28 28 28 28 29 29 30 30 31 32 35 37 40 54 62 63 63 62 63 64 63 63 62 61 59
35 39 38 36 36 34 33 30 31 30 28 26 26 24 22 23 23 22 21 21 24 26 24 23 23 25 29 30 30 31 34 38 47 58 63 63 62 61 62 62 62 62 61 59
38 40 38 37 35 35 32 33 31 27 27 25 25 21 21 21 17 18 19 20 19 19 21 23 24 25 24 27 31 31 32 35 42 58 61 61 59 59 60 61 62 61 61 59
34 37 39 36 37 34 31 29 27 26 24 22 22 18 15 16 15 17 20 24 26 26 28 30 31 30 31 32 35 35 31 32 36 50 62 62 60 60 61 61 61 61 59 59
34 41 37 37 38 35 28 26 25 24 23 18 18 19 9 13 17 19 20 23 26 28 29 32 33 34 36 36 36 38 38 34 32 36 55 61 60 60 60 60 60 59 58 57
31 30 34 34 30 29 27 26 21 12 16 15 21 20 14 18 21 21 21 24 27 29 30 32 34 36 37 37 36 36 38 38 40 37 40 53 60 61 60 59 59 57 56 55
28 27 31 30 29 28 26 26 20 8 4 11 22 16 14 21 21 21 23 26 28 30 32 33 35 37 38 38 37 36 35 36 36 39 46 47 56 59 57 57 58 57 56 55
25 27 30 30 30 28 26 25 22 19 18 15 13 15 15 20 20 21 24 27 29 31 34 35 37 38 39 38 37 35 34 35 38 38 40 47 55 57 56 56 56 57 55 54
27 26 30 30 30 29 27 26 21 19 5 2 8 12 11 16 17 22 24 26 29 33 37 38 39 39 39 39 37 38 39 38 39 40 41 42 47 54 56 54 54 54 54 52
27 27 28 29 27 26 26 25 23 21 18 8 5 9 18 18 19 22 25 27 30 37 38 38 38 39 39 39 40 41 42 43 43 44 44 44 44 46 51 54 52 53 51 49
28 27 26 27 29 30 28 26 22 16 16 20 19 12 22 23 23 23 25 28 36 38 37 35 35 38 40 40 41 41 40 40 41 42 43 44 46 47 49 50 51 50 49 46
28 24 23 25 27 29 27 27 24 21 22 20 14 13 23 23 24 25 27 33 38 36 34 33 35 38 39 40 40 39 37 36 36 41 43 46 47 48 48 48 47 45 44 43
29 25 20 13 19 27 26 27 25 24 21 20 19 18 21 22 25 27 29 37 37 34 33 32 33 34 38 38 38 37 37 36 34 38 42 44 45 46 47 46 44 42 41 39
28 24 26 26 26 28 27 27 27 25 24 20 20 21 22 25 27 28 31 38 34 33 32 31 32 34 36 37 36 36 36 35 34 36 39 41 41 41 40 38 37 36 34 33
30 28 28 24 27 28 27 28 27 27 26 25 25 25 27 28 30 34 39 34 34 32 32 30 31 34 35 36 36 36 35 34 34 34 34 34 35 36 34 34 34 34 35 34
28 27 24 21 24 25 22 26 28 28 28 27 25 26 27 28 31 38 36 34 31 32 32 31 31 33 34 35 36 35 35 35 33 34 34 33 34 34 34 35 35 34 34 35
28 27 27 23 22 17 20 28 28 28 28 29 28 28 28 29 35 36 34 33 31 32 31 32 32 34 35 36 35 35 35 35 35 34 34 34 34 34 34 34 34 34 35 35
31 29 26 23 21 21 26 30 28 28 29 29 29 29 30 34 36 36 34 32 32 32 33 34 35 36 35 34 35 34 34 34 34 33 34 34 33 33 33 32 32 33 32 32
32 30 26 24 20 16 22 34 35 34 30 33 32 32 34 35 33 36 34 33 34 34 35 35 36 36 35 34 35 33 32 32 32 33 33 33 33 32 32 31 31 32 32 31
31 32 28 26 23 24 26 31 36 28 28 32 35 35 35 34 35 36 34 35 35 36 35 36 35 35 35 34 34 33 32 31 32 33 33 33 32 32 31 31 31 30 30 29
28 28 26 25 23 20 31 33 29 32 33 34 34 35 34 35 36 35 35 35 35 35 31 33 34 34 34 33 32 29 30 32 32 32 32 32 31 32 31 29 28 26 23 16
29 28 28 27 25 27 33 34 35 35 33 34 34 34 34 35 36 36 36 35 35 35 28 29 31 29 30 31 28 24 20 19 17 16 14 13 12 11 10 10 10 10 11 11
33 33 30 31 31 32 32 34 36 35 35 35 34 34 35 35 35 37 36 35 35 34 27 26 27 26 24 19 18 17 16 14 12 10 10 10 10 9 9 10 10 10 9 8
32 33 32 32 33 34 35 36 36 36 36 35 35 36 36 36 34 36 36 35 34 33 25 24 26 25 21 16 16 15 14 12 11 10 9 8 7 6 8 7 6 7 7 7
34 33 33 32 34 34 35 37 37 37 37 37 36 35 36 36 35 35 35 31 30 29 23 23 24 22 18 15 14 14 13 11 9 8 8 10 12 15 17 18 18 19 18 19

GFSCGP_sfc_30mbdewp_033.txt.gz
Dewpoint
44 38 33 29 25 22 19 22 17 19 30 30 29 26 25 29 30 28 27 27 26 25 27 30 32 33 33 34 35 37 38 38 41 45 53 64 65 64 65 65 63 63 63 62
39 36 32 29 26 27 26 23 22 25 29 29 23 25 27 27 27 26 26 25 25 25 27 29 25 27 29 30 32 34 36 38 39 40 44 52 61 62 64 65 65 65 64 63
35 34 33 31 28 28 25 23 22 25 29 28 26 23 24 25 26 27 23 23 23 25 25 24 28 32 34 35 35 34 34 34 35 37 40 45 53 59 61 63 64 64 64 64
36 38 34 32 30 26 24 26 29 29 27 16 25 5 22 23 20 21 21 20 22 25 28 31 33 35 37 40 42 40 39 35 34 35 36 39 47 54 58 58 60 62 62 62
34 37 33 30 28 27 28 32 30 30 28 26 24 19 18 19 18 21 24 27 28 30 31 32 35 37 38 42 43 43 40 38 39 35 36 38 42 49 54 56 56 57 61 62
37 40 37 36 32 29 31 30 29 29 27 25 24 18 15 15 16 21 24 26 29 30 33 35 37 38 38 42 43 43 41 38 37 39 39 37 41 45 50 53 54 55 58 61
32 33 38 38 32 31 30 28 26 25 26 22 21 20 16 16 17 21 23 27 30 32 34 37 38 39 40 41 42 41 39 38 38 36 38 40 39 39 45 50 53 55 57 59
30 27 34 36 35 31 30 28 26 18 19 19 18 16 16 17 20 21 26 29 32 34 37 38 39 39 39 40 41 41 40 40 40 39 37 39 40 44 43 43 51 54 56 56
31 29 36 36 35 34 32 28 24 22 16 16 14 15 18 20 19 20 23 26 32 35 38 38 38 38 38 40 40 41 42 41 42 42 42 40 40 41 44 49 51 52 53 54
29 28 35 35 36 34 33 30 27 27 20 10 10 6 12 18 19 21 22 29 33 36 38 37 36 37 39 40 41 41 41 41 41 42 42 42 42 43 43 43 47 50 49 50
29 28 29 33 31 29 27 28 25 25 21 17 4 5 17 18 21 24 27 28 31 36 38 37 36 38 38 39 40 40 40 41 40 39 39 41 43 44 44 44 43 43 48 49
29 29 27 28 29 29 28 25 24 20 22 19 19 14 17 22 24 25 27 30 31 38 37 36 36 36 38 39 39 39 39 39 39 38 39 41 43 45 46 46 47 48 49 49
28 28 25 26 28 29 28 27 25 23 24 24 16 15 20 23 23 26 30 32 33 37 37 36 35 35 37 37 38 38 38 38 37 37 39 41 43 44 45 46 47 47 48 48
28 26 26 21 26 27 27 27 27 25 23 19 16 18 21 22 24 30 32 34 37 37 36 35 34 35 35 36 36 37 36 36 35 37 38 38 39 40 41 42 42 43 43 43
29 28 27 24 27 29 28 26 26 26 25 19 17 16 19 22 28 30 34 38 37 36 35 34 33 33 34 35 35 35 35 35 35 36 36 36 37 37 37 37 37 37 36 35
30 28 30 25 27 27 27 27 26 26 25 23 22 21 22 24 28 32 36 37 36 35 34 33 33 34 34 35 35 35 35 34 35 35 35 35 36 36 36 36 36 36 37 37
28 31 27 24 25 25 23 25 26 26 27 25 22 23 27 26 28 32 36 37 35 34 34 34 34 34 34 34 35 35 35 34 34 35 35 35 35 35 36 36 36 37 37 37
28 30 29 26 25 20 25 27 26 26 26 27 26 25 26 28 30 37 37 36 35 34 35 35 34 33 33 34 35 36 36 34 34 35 34 34 34 34 34 34 34 33 34 34
28 27 27 25 22 21 19 24 26 26 27 27 27 27 27 29 33 36 36 36 36 35 36 35 35 34 34 34 34 35 35 35 34 34 34 34 34 33 33 32 32 32 32 31
29 27 26 23 21 17 24 30 30 30 29 30 28 28 30 33 33 35 36 36 35 36 37 36 35 34 34 35 35 35 34 34 33 34 34 34 34 33 32 32 32 32 32 32
28 27 25 23 21 21 23 35 34 29 30 33 32 33 35 35 36 39 36 36 36 37 37 36 36 35 35 35 36 34 34 33 34 35 35 34 34 33 33 33 32 31 31 30
25 24 24 23 22 20 27 34 30 32 33 34 35 36 36 36 37 37 36 36 36 37 37 36 36 36 36 36 35 34 33 34 33 33 33 32 33 33 33 32 31 29 26 23
24 25 23 24 24 26 29 29 34 35 35 35 36 36 35 35 36 37 37 37 36 37 37 36 37 36 36 34 34 32 30 28 29 28 25 20 16 14 13 12 11 11 10 10
28 29 28 27 27 28 29 34 34 36 36 36 36 36 36 36 36 36 37 37 36 37 35 36 35 35 35 33 33 31 28 26 18 15 13 11 10 9 9 10 9 8 7 5
29 32 30 28 29 33 32 31 33 36 37 37 38 38 37 37 36 36 37 37 37 37 33 34 34 33 32 31 29 26 20 15 16 14 12 10 7 4 7 13 11 9 12 12
32 31 30 28 29 29 30 34 36 37 38 36 35 36 37 37 37 37 36 38 38 36 33 33 33 32 29 29 26 20 16 16 15 10 9 10 11 14 16 17 18 21 21 20

GFSCGP_sfc_30mbdewp_039.txt.gz
Dewpoint
42 40 34 34 37 34 33 31 28 31 32 33 33 33 32 32 29 28 28 28 28 27 28 31 30 30 31 32 33 35 36 38 44 58 64 64 64 64 64 64 65 66 65 62
39 35 36 36 36 34 31 29 28 27 31 32 31 31 32 32 29 29 29 30 29 27 26 25 28 31 35 36 37 37 37 36 36 40 43 58 64 64 65 64 64 64 64 65
34 35 36 34 33 31 29 25 26 26 29 29 27 24 26 28 28 30 30 28 26 26 24 25 34 38 40 41 41 41 41 39 37 36 36 38 42 56 62 63 63 64 64 64
35 37 34 33 31 29 26 26 26 29 27 23 25 17 17 25 26 27 26 23 23 23 30 34 36 39 42 44 45 44 44 41 40 36 36 35 36 37 45 59 62 62 63 63
36 37 35 31 30 28 26 29 29 29 27 27 25 20 20 23 25 24 22 23 23 28 32 35 36 40 43 44 44 43 42 40 40 40 41 39 37 38 40 43 47 57 62 63
37 39 39 37 36 32 32 30 30 29 28 22 24 23 19 22 23 21 26 28 30 32 34 37 39 41 43 43 43 42 42 41 42 42 41 40 40 40 40 40 41 44 52 58
35 34 37 38 34 34 31 26 25 23 24 20 22 23 22 22 21 24 26 28 29 31 36 38 39 40 40 41 42 42 42 42 43 43 43 43 43 42 42 45 44 45 47 56
29 28 36 37 34 32 31 26 22 15 19 21 20 20 20 20 22 26 27 29 30 35 38 39 39 39 39 41 41 42 41 41 42 41 41 41 42 43 44 44 44 45 50 53
29 28 36 37 38 36 32 29 26 23 19 19 20 18 19 21 24 25 28 31 33 37 39 38 37 38 40 40 40 40 41 41 41 40 39 39 40 43 44 45 45 45 46 51
33 28 34 37 38 37 33 31 28 26 19 12 16 15 15 18 23 26 27 28 32 37 38 37 37 39 40 39 39 40 40 39 38 38 39 41 43 45 46 47 47 48 49 51
31 31 31 35 34 33 33 30 29 27 25 19 11 12 18 18 20 24 24 24 28 38 37 36 37 38 39 39 38 38 37 37 36 37 39 40 41 42 43 43 44 47 49 49
31 32 29 32 37 37 34 31 28 25 23 20 20 16 20 20 20 20 21 25 33 38 37 36 36 38 38 38 37 37 37 36 36 38 38 38 39 40 39 39 38 38 42 43
30 29 26 28 32 34 33 33 33 29 26 22 16 14 22 23 23 24 27 29 37 37 37 36 35 36 36 36 36 36 36 36 36 37 37 37 38 38 38 38 37 36 36 36
29 28 25 21 23 29 28 30 32 33 28 24 23 19 22 24 24 26 30 36 37 37 36 35 34 35 35 35 34 35 35 36 36 36 37 36 37 37 37 38 37 36 35 35
30 25 24 26 28 29 28 27 28 28 25 22 21 19 22 23 23 31 36 37 36 35 34 34 33 34 35 35 34 34 35 35 36 36 36 36 36 37 37 37 38 38 37 37
31 28 27 21 26 27 25 28 28 28 26 26 26 24 23 23 28 36 37 37 36 35 34 34 34 33 33 33 34 35 36 35 36 35 35 35 35 36 37 37 37 37 37 38
30 28 24 23 26 25 20 24 25 27 28 27 24 25 25 28 32 36 37 37 35 34 34 34 33 33 33 34 35 35 35 35 35 34 34 35 35 35 35 36 35 35 35 35
30 28 27 25 25 15 15 27 26 25 27 28 27 26 26 28 32 36 38 36 35 34 34 34 33 33 33 35 36 35 35 35 35 34 34 34 34 34 34 34 33 33 33 33
31 29 26 23 23 21 24 27 25 26 25 28 27 26 27 31 35 36 38 36 35 35 35 34 34 33 33 34 36 35 35 35 34 34 34 34 34 33 33 32 32 32 30 30
30 29 26 26 21 18 27 28 29 29 24 30 28 27 27 32 27 29 37 36 36 36 35 34 33 33 33 34 36 34 34 34 34 34 34 34 34 33 32 32 31 32 31 31
27 28 26 25 23 22 25 29 32 26 28 30 29 29 28 30 31 37 36 36 36 36 35 34 34 34 34 35 35 32 33 33 34 34 34 34 34 33 32 31 31 30 28 27
25 24 25 26 23 19 34 33 31 33 35 33 32 32 32 37 37 36 36 36 37 36 36 35 34 34 35 35 34 32 32 34 33 33 33 33 33 32 32 31 29 27 24 19
24 26 24 25 24 26 35 32 35 35 34 36 36 37 38 38 37 37 36 36 37 37 36 36 35 35 35 35 35 33 33 34 33 32 32 32 32 32 30 24 23 19 15 11
27 28 26 27 27 28 29 34 36 36 36 37 37 36 36 35 37 37 37 36 37 37 36 36 36 35 35 35 35 33 33 33 31 28 21 17 17 14 12 9 11 9 8 5
28 29 27 27 29 31 30 34 36 36 37 37 36 36 36 36 36 37 38 37 37 37 37 37 37 36 35 35 35 33 32 30 27 15 12 11 11 9 15 19 11 12 17 15
32 30 28 27 30 29 29 32 36 36 37 37 37 36 37 38 38 38 37 38 38 38 37 37 37 37 36 35 34 32 30 26 16 13 12 11 7 10 16 20 21 23 22 20

GFSCGP_sfc_30mbdewp_042.txt.gz
Dewpoint
43 37 34 35 36 33 33 31 31 32 34 33 32 33 34 33 30 30 31 30 29 28 29 31 31 31 33 34 35 35 39 41 59 64 64 64 64 64 64 65 65 65 64 63
39 34 35 36 37 34 33 30 30 30 32 33 33 32 33 33 33 30 28 29 29 28 27 28 32 36 37 38 39 39 38 36 36 42 47 61 63 64 64 64 64 64 65 65
35 35 37 35 35 35 31 30 28 27 30 30 28 28 30 32 32 31 30 29 30 27 25 29 36 39 41 42 43 43 42 40 39 36 37 38 40 52 60 62 63 63 64 64
36 37 36 35 33 33 30 27 26 28 29 27 26 23 21 27 29 30 30 28 28 25 24 34 37 40 42 44 44 43 42 40 40 40 39 36 35 35 40 49 56 57 61 62
34 36 35 33 33 30 28 28 29 29 28 26 24 22 21 22 23 26 28 25 24 25 33 36 38 42 43 43 43 42 41 42 43 42 41 40 40 40 40 41 42 44 49 57
37 40 38 35 35 30 32 30 29 29 26 21 24 23 21 19 21 24 24 23 23 31 35 37 42 43 43 42 42 42 42 42 43 43 43 43 42 42 42 42 44 45 46 48
36 36 37 38 33 33 30 26 23 23 22 20 23 24 22 23 23 24 25 27 31 33 37 39 40 41 41 41 42 42 42 41 41 41 40 41 42 43 43 44 44 45 46 51
30 29 36 37 34 31 28 25 21 17 18 19 21 19 19 22 21 24 28 29 30 34 38 39 40 39 40 41 41 41 41 41 40 39 39 40 42 43 45 45 45 44 45 49
28 29 37 37 38 36 32 27 27 23 20 20 20 21 20 22 23 26 27 29 30 35 39 39 38 39 40 40 40 40 40 39 38 38 40 42 43 44 46 47 47 48 49 50
32 26 35 37 38 36 33 31 26 26 18 14 17 18 16 20 23 26 27 29 33 38 39 37 38 39 40 39 39 38 38 37 36 39 40 40 41 42 43 43 44 47 49 50
33 30 31 36 35 33 32 31 31 29 25 19 16 14 17 19 24 26 28 31 34 38 38 37 38 39 39 38 38 37 37 36 36 38 38 38 39 40 40 38 38 42 44 45
33 33 28 31 37 37 34 32 30 27 25 22 20 17 20 20 23 27 27 27 27 37 37 37 38 38 38 37 37 36 36 36 37 37 37 38 38 38 39 38 37 37 38 37
31 30 26 28 32 35 35 35 32 28 26 22 19 15 23 21 21 24 24 26 35 38 36 36 37 37 37 36 35 35 36 36 36 37 37 37 37 37 38 37 36 36 36 35
31 29 24 21 23 31 31 33 33 30 26 23 22 20 20 22 21 22 24 32 37 37 36 35 36 35 35 35 34 35 35 36 36 36 36 36 37 37 37 38 37 36 36 35
28 25 26 26 29 29 29 30 32 32 29 27 25 26 25 22 23 24 31 37 37 36 35 34 34 34 35 34 34 35 35 36 36 36 36 36 37 37 38 38 38 38 38 37
30 27 25 22 26 27 25 28 31 32 32 31 27 24 25 24 25 30 35 37 36 35 34 34 34 34 33 33 35 35 35 35 35 34 35 35 35 36 36 37 37 36 36 36
29 27 24 20 26 25 21 24 26 29 29 30 27 26 25 24 25 33 36 37 36 35 34 34 33 33 33 34 35 35 35 35 35 35 35 35 35 35 35 36 35 34 34 35
29 26 25 24 23 17 19 26 25 26 28 29 27 27 26 27 31 36 37 37 36 35 34 34 33 33 33 35 36 35 35 35 34 34 34 35 35 34 35 34 33 33 33 33
30 29 24 23 22 21 22 27 26 25 23 27 29 28 27 30 34 35 38 37 36 35 35 34 33 33 34 35 36 35 35 35 34 34 34 34 34 34 33 32 32 31 31 31
30 29 26 26 21 16 23 28 28 28 23 30 29 29 27 33 29 30 37 37 36 35 35 34 33 33 33 35 36 35 34 34 34 34 34 34 34 34 32 32 31 31 31 30
28 28 27 25 23 23 24 29 31 24 25 33 30 29 29 31 29 32 37 36 36 35 34 34 33 33 33 36 34 34 34 34 34 34 34 34 34 32 32 31 31 28 27 27
24 23 24 26 25 19 30 32 29 31 34 34 31 30 31 33 37 37 36 36 36 35 35 34 33 33 35 35 33 33 32 34 34 34 34 34 32 32 31 30 28 25 21 19
24 25 24 26 25 25 30 32 33 35 34 35 36 35 34 37 37 37 36 36 36 36 35 34 34 34 35 34 34 33 33 33 32 32 32 32 32 31 30 26 24 23 19 12
27 28 26 26 26 27 28 33 35 36 35 36 37 37 38 37 37 37 37 36 37 36 36 35 35 34 34 35 34 33 33 34 33 32 31 30 29 29 27 23 15 12 11 7
29 29 27 27 28 30 30 30 34 36 37 37 36 36 36 36 37 37 37 37 37 38 37 36 36 35 35 35 35 34 34 33 32 30 24 17 16 14 9 10 9 9 12 9
29 29 28 27 29 28 28 30 34 36 36 37 37 37 37 38 37 37 37 38 37 38 38 37 37 36 36 35 35 34 34 32 30 25 15 12 11 11 16 20 21 22 22 21